FW9981 Weather Reports


Display with metric or nautical units.
time (UTC)temp
F
wind
direction
speed
MPH
gust
MPH
rain 1hr
in
rain 24hr
in
rain mn
in
humidity
%
barometer
mb
20260508015805 48 20 1.0 1.0 0.00 0.18 0.18 48 1001.6
20260508015305 48 55 1.0 1.0 0.00 0.18 0.18 49 1001.7
20260508014759 49 60 0.0 0.0 0.00 0.18 0.18 46 1001.5
20260508014256 48 74 1.0 1.0 0.00 0.18 0.18 47 1001.5
20260508013751 49 76 0.0 0.0 0.00 0.18 0.18 50 1001.7
20260508013248 49 73 0.0 1.0 0.00 0.18 0.18 48 1001.4
20260508012746 49 71 0.0 1.0 0.00 0.18 0.18 50 1001.7
20260508012242 49 52 0.0 1.0 0.00 0.18 0.18 49 1001.6
20260508011741 49 62 0.0 0.0 0.00 0.18 0.18 52 1001.5
20260508011238 50 91 1.0 1.0 0.00 0.18 0.18 47 1001.5
20260508010735 50 54 0.0 0.0 0.00 0.18 0.18 47 1001.4
20260508010233 50 57 0.0 0.0 0.00 0.18 0.18 48 1001.4
20260508005729 50 41 1.0 1.0 0.00 0.18 0.18 46 1001.3
20260508005226 50 77 1.0 1.0 0.00 0.18 0.18 49 1001.3
20260508004722 50 81 0.0 1.0 0.00 0.18 0.18 51 1001.1
20260508004218 51 64 0.0 0.0 0.00 0.18 0.18 48 1001.1
20260508003715 50 70 0.0 0.0 0.00 0.18 0.18 51 1001.1
20260508003213 51 55 0.0 0.0 0.00 0.18 0.18 51 1000.8
20260508002709 50 72 0.0 0.0 0.00 0.18 0.18 50 1000.9
20260508002207 51 49 0.0 0.0 0.00 0.18 0.18 50 1000.6
20260508001702 51 83 0.0 0.0 0.00 0.18 0.18 48 1000.8
20260508001158 52 66 0.0 1.0 0.00 0.18 0.18 47 1000.6
20260508000654 52 50 0.0 0.0 0.00 0.18 0.18 49 1000.6
20260508000151 52 48 0.0 1.0 0.00 0.18 0.18 48 1000.6
20260507235648 52 46 0.0 0.0 0.00 0.18 0.18 46 1000.5
20260507235145 53 45 0.0 0.0 0.00 0.18 0.18 46 1000.5
20260507234642 53 49 1.0 1.0 0.00 0.18 0.18 43 1000.1
20260507234138 54 43 1.0 1.0 0.00 0.18 0.18 43 1000.4
20260507233635 54 43 1.0 2.0 0.00 0.18 0.18 43 1000.1
20260507233134 55 327 0.0 2.0 0.00 0.18 0.18 44 1000.2
20260507232630 55 6 2.0 2.0 0.00 0.18 0.18 41 1000.2
20260507232127 55 29 1.0 1.0 0.00 0.18 0.18 40 1000.0
20260507231623 56 38 1.0 1.0 0.00 0.18 0.18 42 999.9
20260507231121 56 272 3.0 3.0 0.00 0.18 0.18 41 999.9
20260507230617 56 43 1.0 1.0 0.00 0.18 0.18 38 999.9
20260507230114 56 352 2.0 2.0 0.00 0.18 0.18 39 999.6
20260507225609 56 4 2.0 3.0 0.00 0.18 0.18 40 999.3
20260507225106 57 25 1.0 1.0 0.00 0.18 0.18 39 999.6
20260507224601 58 329 4.0 4.0 0.00 0.18 0.18 38 999.4
20260507224058 58 50 0.0 0.0 0.00 0.18 0.18 38 999.3
20260507223554 58 51 2.0 2.0 0.00 0.18 0.18 39 999.2
20260507223051 58 318 2.0 2.0 0.00 0.18 0.18 38 999.4
20260507222548 59 334 2.0 3.0 0.00 0.18 0.18 37 999.1
20260507222045 59 4 2.0 2.0 0.00 0.18 0.18 36 999.0
20260507221541 59 33 1.0 2.0 0.00 0.18 0.18 36 998.9
20260507221038 59 10 2.0 2.0 0.00 0.18 0.18 37 999.0
20260507220535 59 299 2.0 3.0 0.00 0.18 0.18 38 998.9
20260507220033 59 9 1.0 1.0 0.00 0.18 0.18 37 998.7
20260507215529 59 323 4.0 4.0 0.00 0.18 0.18 38 998.9
20260507215027 59 294 3.0 3.0 0.00 0.18 0.18 38 998.8
20260507214524 59 43 1.0 1.0 0.00 0.18 0.18 38 998.9
20260507214020 58 41 1.0 1.0 0.00 0.18 0.18 40 998.9
20260507213516 58 46 2.0 2.0 0.00 0.18 0.18 40 998.7
20260507213013 59 4 2.0 2.0 0.00 0.18 0.18 38 998.9
20260507212509 59 37 1.0 1.0 0.00 0.18 0.18 40 999.0
20260507212006 59 311 3.0 3.0 0.00 0.18 0.18 38 999.0
20260507211503 59 22 1.0 1.0 0.00 0.18 0.18 39 998.7
20260507210959 59 50 2.0 3.0 0.00 0.18 0.18 40 998.8
20260507210456 60 48 0.0 1.0 0.00 0.18 0.18 38 998.6
20260507205952 60 37 2.0 2.0 0.00 0.18 0.18 38 998.5
20260507205449 62 271 5.0 6.0 0.00 0.18 0.18 36 998.6
20260507204940 60 25 2.0 2.0 0.00 0.18 0.18 40 998.2
20260507204436 61 299 2.0 4.0 0.00 0.18 0.18 38 998.6
20260507203934 59 8 2.0 2.0 0.00 0.18 0.18 43 998.4
20260507203432 59 300 4.0 4.0 0.00 0.18 0.18 40 998.4
20260507202928 61 290 4.0 4.0 0.00 0.18 0.18 39 998.3
20260507202425 62 295 3.0 3.0 0.00 0.18 0.18 38 998.1
20260507201921 62 297 4.0 4.0 0.00 0.18 0.18 37 998.3
20260507201416 62 281 5.0 7.0 0.00 0.18 0.18 37 998.4
20260507200913 63 301 4.0 6.0 0.00 0.18 0.18 37 998.4
20260507200408 62 279 6.0 7.0 0.00 0.18 0.18 37 998.4
20260507195904 63 268 5.0 6.0 0.00 0.18 0.18 38 998.3
20260507195402 61 304 6.0 7.0 0.00 0.18 0.18 38 998.3
20260507194859 62 265 5.0 6.0 0.00 0.18 0.18 36 998.4
20260507194355 62 285 2.0 4.0 0.00 0.18 0.18 39 998.4
20260507193852 62 292 4.0 6.0 0.00 0.18 0.18 41 998.3
20260507193349 63 330 2.0 2.0 0.00 0.18 0.18 40 998.3
20260507192845 62 326 3.0 4.0 0.00 0.18 0.18 40 998.6
20260507192342 63 273 6.0 8.0 0.00 0.18 0.18 42 998.2
20260507191838 62 311 4.0 4.0 0.00 0.18 0.18 47 998.4
20260507191334 61 293 5.0 6.0 0.00 0.18 0.18 47 998.2
20260507190832 60 294 2.0 3.0 0.00 0.18 0.18 50 998.5
20260507190330 61 20 3.0 6.0 0.00 0.18 0.18 49 998.6
20260507185829 61 308 3.0 4.0 0.00 0.18 0.18 49 998.6
20260507185325 59 282 4.0 4.0 0.00 0.18 0.18 54 998.5
20260507184822 58 283 4.0 4.0 0.00 0.18 0.18 55 998.6
20260507184320 60 23 1.0 2.0 0.00 0.18 0.18 55 998.7
20260507183817 59 303 4.0 4.0 0.00 0.18 0.18 56 998.7
20260507183314 59 298 6.0 9.0 0.00 0.18 0.18 55 998.7
20260507182811 61 0 4.0 6.0 0.00 0.18 0.18 51 998.6
20260507182307 59 56 2.0 3.0 0.00 0.18 0.18 52 998.5
20260507181803 58 310 3.0 3.0 0.00 0.18 0.18 54 998.8
20260507181259 58 301 3.0 4.0 0.00 0.18 0.18 56 998.6
20260507180756 60 353 2.0 2.0 0.00 0.18 0.18 55 998.5
20260507180253 60 77 2.0 3.0 0.00 0.18 0.18 54 998.7
20260507175748 60 265 4.0 4.0 0.00 0.18 0.18 54 998.8
20260507175246 59 278 3.0 3.0 0.00 0.18 0.18 54 998.8
20260507174743 60 334 3.0 4.0 0.00 0.18 0.18 55 998.6
20260507174241 61 277 2.0 3.0 0.00 0.18 0.18 53 998.9
20260507173738 59 351 2.0 3.0 0.00 0.18 0.18 55 998.9
20260507173235 59 315 3.0 3.0 0.00 0.18 0.18 55 998.9
20260507172731 60 34 1.0 1.0 0.00 0.18 0.18 55 998.8
20260507172229 60 323 2.0 2.0 0.00 0.18 0.18 52 998.7
20260507171728 61 292 2.0 2.0 0.00 0.18 0.18 54 998.8
20260507171226 61 100 1.0 1.0 0.00 0.18 0.18 60 998.9
20260507170723 59 280 3.0 3.0 0.00 0.18 0.18 54 999.1
20260507170220 59 298 2.0 3.0 0.00 0.18 0.18 56 999.2
20260507165715 59 302 4.0 4.0 0.00 0.18 0.18 54 999.2
20260507165212 61 286 5.0 7.0 0.00 0.18 0.18 54 999.0
20260507164708 63 279 4.0 4.0 0.00 0.18 0.18 51 999.1
20260507164206 61 272 2.0 3.0 0.00 0.18 0.18 58 999.0
20260507163702 60 274 4.0 4.0 0.00 0.18 0.18 51 999.2
20260507163200 59 307 3.0 3.0 0.00 0.18 0.18 54 999.2
20260507162656 59 316 2.0 2.0 0.00 0.18 0.18 56 999.4
20260507162152 60 359 2.0 2.0 0.00 0.18 0.18 54 999.4
20260507161648 60 36 1.0 1.0 0.00 0.18 0.18 52 999.3
20260507161145 58 288 3.0 3.0 0.00 0.18 0.18 53 999.6
20260507160641 59 348 2.0 2.0 0.00 0.18 0.18 55 999.5
20260507160138 60 285 5.0 6.0 0.00 0.18 0.18 52 999.5
20260507155634 61 341 2.0 2.0 0.00 0.18 0.18 54 999.7
20260507155130 59 335 2.0 2.0 0.00 0.18 0.18 55 999.7
20260507154627 60 19 1.0 2.0 0.00 0.18 0.18 54 999.9
20260507154124 60 200 2.0 2.0 0.00 0.18 0.18 55 999.9
20260507153615 58 25 1.0 1.0 0.00 0.18 0.18 56 999.9
20260507153111 61 323 2.0 3.0 0.00 0.18 0.18 55 999.8
20260507152607 60 30 1.0 1.0 0.00 0.18 0.18 57 1000.0
20260507152058 60 307 4.0 4.0 0.00 0.18 0.18 55 1000.1
20260507151554 59 280 4.0 4.0 0.00 0.18 0.18 54 999.9
20260507151052 60 298 4.0 4.0 0.00 0.18 0.18 57 1000.0
20260507150549 59 321 2.0 3.0 0.00 0.18 0.18 58 999.8
20260507150045 59 318 3.0 3.0 0.00 0.18 0.18 59 999.9
20260507145540 59 17 2.0 2.0 0.00 0.18 0.18 61 1000.1
20260507145038 58 31 1.0 2.0 0.00 0.18 0.18 62 1000.1
20260507144534 58 271 5.0 6.0 0.00 0.18 0.18 62 1000.2
20260507144032 57 76 0.0 0.0 0.00 0.18 0.18 63 1000.0
20260507143529 58 252 2.0 3.0 0.00 0.18 0.18 65 1000.5
20260507143027 57 286 3.0 4.0 0.00 0.18 0.18 66 1000.3
20260507142522 58 60 1.0 1.0 0.00 0.18 0.18 70 1000.5
20260507142019 57 351 2.0 2.0 0.00 0.18 0.18 71 1000.5
20260507141515 57 310 2.0 2.0 0.00 0.18 0.18 69 1000.4
20260507141012 57 29 1.0 2.0 0.00 0.18 0.18 72 1000.6
20260507140509 56 4 2.0 2.0 0.00 0.18 0.18 68 1000.8
20260507140007 56 319 2.0 2.0 0.00 0.18 0.18 73 1000.7
20260507135503 56 45 1.0 2.0 0.00 0.18 0.18 72 1000.8
20260507135000 55 12 1.0 1.0 0.00 0.18 0.18 69 1000.8
20260507134456 55 53 0.0 0.0 0.00 0.18 0.18 72 1000.7
20260507133953 55 36 1.0 1.0 0.00 0.18 0.18 73 1000.8
20260507133448 54 355 2.0 2.0 0.00 0.18 0.18 76 1000.7
20260507132947 54 58 0.0 1.0 0.00 0.18 0.18 76 1000.6
20260507132443 53 332 2.0 2.0 0.00 0.18 0.18 77 1000.5
20260507131939 53 2 2.0 2.0 0.00 0.18 0.18 75 1000.6
20260507131437 53 23 1.0 2.0 0.00 0.18 0.18 76 1000.7
20260507130934 53 351 2.0 2.0 0.00 0.18 0.18 76 1000.8
20260507130431 52 56 0.0 1.0 0.00 0.18 0.18 80 1000.7
20260507125929 52 8 1.0 2.0 0.00 0.18 0.18 81 1000.8
20260507125427 51 10 1.0 2.0 0.00 0.18 0.18 82 1000.9
20260507124924 51 54 0.0 0.0 0.00 0.18 0.18 85 1000.9
20260507124420 50 51 0.0 0.0 0.00 0.18 0.18 86 1000.9
20260507123919 50 69 0.0 0.0 0.00 0.18 0.18 80 1001.1
20260507123415 50 48 1.0 1.0 0.00 0.18 0.18 85 1000.9
20260507122912 49 57 1.0 2.0 0.00 0.18 0.18 85 1001.1
20260507122407 49 94 0.0 1.0 0.00 0.18 0.18 87 1001.0
20260507121904 48 38 1.0 1.0 0.00 0.18 0.18 88 1001.2
20260507121359 48 50 0.0 0.0 0.00 0.18 0.18 88 1001.0
20260507120856 47 69 0.0 0.0 0.00 0.18 0.18 89 1001.3
20260507120352 47 62 0.0 0.0 0.00 0.18 0.18 90 1001.2
20260507115849 47 56 0.0 0.0 0.00 0.18 0.18 92 1001.1
20260507115344 47 301 1.0 2.0 0.00 0.18 0.18 93 1000.9
20260507114840 46 35 0.0 0.0 0.00 0.18 0.18 93 1001.0
20260507114338 46 36 0.0 0.0 0.00 0.18 0.18 95 1001.0
20260507113835 45 37 0.0 0.0 0.00 0.18 0.18 95 1000.9
20260507113332 45 41 0.0 1.0 0.00 0.18 0.18 97 1001.3
20260507112829 45 42 0.0 0.0 0.00 0.18 0.18 96 1001.1
20260507112326 45 42 0.0 0.0 0.00 0.18 0.18 98 1001.2
20260507111824 44 42 0.0 0.0 0.00 0.18 0.18 98 1001.6
20260507111320 44 42 0.0 0.0 0.00 0.18 0.18 99 1001.2
20260507110817 44 42 0.0 0.0 0.07 0.18 0.18 98 1001.1
20260507110313 44 42 0.0 0.0 0.07 0.18 0.18 98 1001.3
20260507105810 45 42 0.0 0.0 0.00 0.17 0.17 99 1001.7
20260507105307 44 42 0.0 0.0 0.00 0.17 0.17 99 1001.1
20260507104803 44 42 0.0 0.0 0.00 0.17 0.17 99 1001.3
20260507104259 44 42 0.0 0.0 0.00 0.17 0.17 99 1001.2
20260507103755 44 41 0.0 0.0 0.00 0.17 0.17 99 1001.6
20260507103252 44 42 0.0 0.0 0.00 0.17 0.17 99 1001.1
20260507102748 44 42 0.0 0.0 0.00 0.17 0.17 99 1001.5
20260507102240 44 42 0.0 0.0 0.00 0.17 0.17 99 1001.3
20260507101736 44 41 0.0 0.0 0.00 0.17 0.17 99 1001.3
20260507101231 44 41 0.0 0.0 0.00 0.17 0.17 99 1001.6
20260507100728 44 41 0.0 1.0 0.00 0.17 0.17 99 1001.3
20260507100227 44 48 0.0 0.0 0.00 0.17 0.17 99 1001.0
20260507095724 44 49 0.0 0.0 0.00 0.17 0.17 99 1000.8
20260507095220 44 48 0.0 0.0 0.00 0.17 0.17 99 1000.8
20260507094718 44 32 1.0 1.0 0.00 0.17 0.17 99 1000.7
20260507094215 44 45 0.0 0.0 0.00 0.17 0.17 99 1000.1
20260507093711 44 46 0.0 0.0 0.00 0.17 0.17 99 1000.8
20260507093210 44 53 0.0 1.0 0.00 0.17 0.17 99 1000.6
20260507092707 44 54 0.0 0.0 0.00 0.17 0.17 99 1000.6
20260507092203 44 54 0.0 0.0 0.00 0.17 0.17 99 1000.6
20260507091700 44 53 0.0 0.0 0.00 0.17 0.17 99 1000.9
20260507091156 44 64 0.0 0.0 0.00 0.17 0.17 99 1000.9
20260507090652 44 64 0.0 0.0 0.00 0.17 0.17 99 1000.7
20260507090149 45 64 0.0 1.0 0.00 0.17 0.17 99 1000.6
20260507085646 45 64 0.0 0.0 0.00 0.17 0.17 99 1001.3
20260507085142 45 13 1.0 1.0 0.00 0.17 0.17 99 1001.2
20260507084639 45 39 1.0 1.0 0.00 0.17 0.17 99 1000.8
20260507084136 45 49 0.0 0.0 0.00 0.17 0.17 99 1000.8
20260507083633 45 57 0.0 0.0 0.00 0.17 0.17 99 1000.9
20260507083130 45 64 0.0 0.0 0.00 0.17 0.17 99 1000.9
20260507082625 45 50 1.0 1.0 0.00 0.17 0.17 99 1000.7
20260507082122 45 43 0.0 0.0 0.00 0.17 0.17 99 1000.5
20260507081619 45 42 0.0 0.0 0.00 0.17 0.17 99 1000.7
20260507081115 45 42 0.0 1.0 0.00 0.17 0.17 99 1000.8
20260507080612 45 42 0.0 1.0 0.00 0.17 0.17 99 1000.7
20260507080108 46 43 0.0 1.0 0.00 0.17 0.17 99 1000.6
20260507075603 46 16 1.0 1.0 0.00 0.17 0.17 99 1000.5
20260507075100 46 49 1.0 1.0 0.00 0.17 0.17 99 1000.6
20260507074556 46 62 0.0 1.0 0.00 0.17 0.17 99 1000.3
20260507074055 46 53 0.0 0.0 0.00 0.17 0.17 99 1000.6
20260507073550 46 350 2.0 2.0 0.00 0.17 0.17 99 1000.7
20260507073047 46 56 0.0 1.0 0.00 0.17 0.17 99 1000.7
20260507072545 46 57 0.0 0.0 0.00 0.17 0.17 99 1000.8
20260507072042 47 297 2.0 3.0 0.00 0.17 0.17 99 1000.7
20260507071539 47 46 0.0 0.0 0.00 0.17 0.17 99 1000.5
20260507071036 47 66 0.0 0.0 0.00 0.17 0.17 99 1000.2
20260507070533 47 78 0.0 0.0 0.00 0.17 0.17 99 1000.1
20260507070030 47 48 0.0 0.0 0.00 0.17 0.17 99 1000.1
20260507065526 47 48 0.0 0.0 0.00 0.17 0.17 99 1000.1
20260507065023 47 49 0.0 0.0 0.00 0.17 0.17 99 1000.1
20260507064521 47 45 1.0 1.0 0.00 0.17 0.17 99 1000.1
20260507064020 47 55 0.0 0.0 0.00 0.17 0.17 99 999.9
20260507063516 47 52 0.0 1.0 0.00 0.17 0.17 99 999.9
20260507063014 47 70 0.0 0.0 0.00 0.17 0.17 99 999.6
20260507062510 47 72 0.0 0.0 0.00 0.17 0.17 99 999.7
20260507062008 48 48 0.0 0.0 0.00 0.17 0.17 99 999.6
20260507061505 48 48 0.0 0.0 0.00 0.17 0.17 99 1000.0
20260507061003 48 80 0.0 0.0 0.00 0.17 0.17 99 999.9
20260507060500 48 52 0.0 0.0 0.00 0.17 0.17 99 999.5
20260507055956 48 45 0.0 0.0 0.00 0.17 0.17 99 999.5
20260507055452 48 45 0.0 0.0 0.00 0.17 0.17 99 999.6
20260507054949 48 45 0.0 1.0 0.00 0.17 0.17 99 999.6
20260507054445 48 48 0.0 1.0 0.00 0.17 0.17 99 999.3
20260507053942 48 74 1.0 1.0 0.00 0.17 0.17 99 999.4
20260507053440 48 62 0.0 0.0 0.00 0.17 0.17 99 999.6
20260507052938 48 49 1.0 1.0 0.00 0.17 0.17 99 999.6
20260507052436 48 47 2.0 3.0 0.00 0.17 0.17 99 999.5
20260507051933 48 70 2.0 2.0 0.00 0.17 0.17 99 999.5
20260507051430 49 88 1.0 1.0 0.00 0.17 0.17 99 999.8
20260507050927 49 64 1.0 1.0 0.00 0.17 0.17 99 999.8
20260507050423 49 76 1.0 1.0 0.00 0.17 0.17 99 999.6
20260507045920 49 60 0.0 1.0 0.00 0.17 0.17 99 1000.0
20260507045417 49 73 0.0 1.0 0.05 0.17 0.17 99 999.9
20260507044914 50 59 0.0 0.0 0.12 0.17 0.17 99 999.8
20260507044411 50 24 2.0 4.0 0.12 0.16 0.16 99 999.7
20260507043907 50 81 1.0 1.0 0.12 0.15 0.15 99 999.5
20260507043403 50 56 0.0 0.0 0.26 0.14 0.14 99 1000.0
20260507042859 50 68 1.0 1.0 0.47 0.13 0.13 99 1000.0
20260507042355 51 47 2.0 3.0 0.35 0.10 0.10 99 1000.0
20260507041846 51 52 1.0 1.0 0.07 0.05 0.05 99 1000.0
20260507041343 52 91 2.0 2.0 0.00 0.04 0.04 99 999.6
20260507040841 52 63 2.0 2.0 0.05 0.04 0.04 99 999.3
20260507040337 52 56 0.0 0.0 0.12 0.04 0.04 99 999.0
20260507035833 53 62 0.0 0.0 0.07 0.03 0.03 99 999.2
20260507035328 53 69 0.0 1.0 0.05 0.02 0.02 99 998.9
20260507034826 53 61 0.0 0.0 0.05 0.02 0.02 99 999.0
20260507034322 53 61 0.0 0.0 0.00 0.01 0.01 99 999.1
20260507033821 53 30 1.0 1.0 0.00 0.01 0.01 99 999.2
20260507033318 53 39 0.0 0.0 0.00 0.01 0.01 99 999.1
20260507032815 53 39 0.0 0.0 0.07 0.01 0.01 99 998.9
20260507032311 53 48 0.0 0.0 0.07 0.01 0.01 99 999.0
20260507031808 53 62 0.0 0.0 0.07 0.01 0.01 99 998.8
20260507031304 53 99 0.0 0.0 0.05 0.00 0.00 99 998.7
20260507030800 52 62 0.0 0.0 0.05 0.00 0.00 99 998.6
20260507030258 52 62 0.0 0.0 0.00 0.45 0.45 99 998.9
20260507025755 52 63 0.0 0.0 0.00 0.45 0.45 99 998.8
20260507025253 52 63 0.0 0.0 0.00 0.45 0.45 99 998.7
20260507024750 52 60 0.0 0.0 0.00 0.45 0.45 99 998.7
20260507024247 52 37 1.0 1.0 0.00 0.45 0.45 99 998.7
20260507023743 52 9 1.0 1.0 0.00 0.45 0.45 99 998.6
20260507023240 52 83 0.0 1.0 0.00 0.45 0.45 99 998.6
20260507022737 52 223 2.0 3.0 0.00 0.45 0.45 99 998.5
20260507022233 52 17 2.0 2.0 0.00 0.45 0.45 99 998.5
20260507021730 52 100 1.0 1.0 0.00 0.45 0.45 99 998.7
20260507021226 52 152 1.0 1.0 0.00 0.45 0.45 99 998.6
20260507020724 52 301 2.0 2.0 0.00 0.45 0.45 99 998.5
20260507020220 52 83 2.0 2.0 0.00 0.45 0.45 99 998.6